This demonstration page uses our WeatherBlox Daily Observations layout. Learn more.

Left ArrowRight Arrow

Hourly Observations for May 7, 2015

Temp ( °F °C ) Dew Point ( °F °C ) Humidity (%) Winds ( mph kmh ) Pressure ( in mb ) Visibility ( mi km ) Precip ( " mm )
12:53 am 00:53 Clear 71 21.7 61 16.1 71 71 SE 16 26 29.65 1004 10 16 0.00 0.00
1:53 am 01:53 Clear 70 21.1 61 16.1 73 73 SE 13 20 29.64 1004 10 16 0.00 0.00
2:53 am 02:53 Partly Cloudy 69 20.6 61 16.1 76 76 SE 16 26 29.62 1003 10 16 0.00 0.00
3:06 am 03:06 Mostly Cloudy 70 21.1 61 16.1 73 73 SSE 13 20 29.65 1004 10 16 0.00 0.00
3:53 am 03:53 Cloudy 70 21.1 61 16.1 73 73 SSE 12 19 29.62 1003 10 16 0.00 0.00
4:53 am 04:53 Cloudy 70 21.1 62 16.7 76 76 SSE 10 17 29.63 1003 10 16 0.00 0.00
5:33 am 05:33 Mostly Cloudy 68 20 63 17 83 83 ESE 9 15 29.65 1004 10 16 0.00 0.00
5:53 am 05:53 Mostly Cloudy 68 20 62 16.7 81 81 SE 9 15 29.62 1003 9 14 0.00 0.00
6:53 am 06:53 Clear 67 19.4 62 16.7 84 84 SSE 8 13 29.64 1004 8 13 0.00 0.00
7:23 am 07:23 Hazy 67 19.4 62 16.7 84 84 SSE 6 9 29.71 1006 6 10 0.00 0.00
7:53 am 07:53 Hazy 68 20 62 16.7 81 81 Calm 29.67 1005 6 10 0.00 0.00
8:53 am 08:53 Sunny 70 21.1 62 16.7 76 76 SSW 5 7 29.69 1006 8 13 0.00 0.00
9:53 am 09:53 Sunny 74 23.3 62 16.7 67 67 WNW 7 11 29.70 1006 10 16 0.00 0.00
10:53 am 10:53 Sunny 78 25.6 57 13.9 48 48 NW 9 15 29.71 1006 10 16 0.00 0.00
11:53 am 11:53 Sunny 83 28.3 47 8.3 28 28 W 14 22 29.71 1006 10 16 0.00 0.00
12:53 pm 12:53 Sunny 86 30 46 7.8 25 25 WNW 13 20 29.70 1006 10 16 0.00 0.00
1:53 pm 13:53 Sunny 89 31.7 36 2.2 15 15 W 16 26 29.67 1005 10 16 0.00 0.00
2:53 pm 14:53 Sunny 90 32.2 27 -2.8 10 10 SW 16 26 29.66 1004 10 16 0.00 0.00
3:53 pm 15:53 Sunny 91 32.8 23 -5 8 8 SW 18 30 29.65 1004 10 16 0.00 0.00
4:53 pm 16:53 Sunny 91 32.8 23 -5 8 8 W 16 26 29.62 1003 10 16 0.00 0.00
5:53 pm 17:53 Sunny 90 32.2 23 -5 9 9 SW 12 19 29.62 1003 10 16 0.00 0.00
6:53 pm 18:53 Sunny 89 31.7 25 -3.9 10 10 W 5 7 29.62 1003 10 16 0.00 0.00
7:53 pm 19:53 Sunny 88 31.1 23 -5 9 9 Calm 29.62 1003 10 16 0.00 0.00
8:53 pm 20:53 Clear 79 26.1 33 0.6 19 19 N 8 13 29.64 1004 10 16 0.00 0.00
9:53 pm 21:53 Clear 73 22.8 34 1.1 24 24 NNE 8 13 29.65 1004 10 16 0.00 0.00
10:53 pm 22:53 Clear 67 19.4 38 3.3 35 35 NE 7 11 29.66 1005 10 16 0.00 0.00
11:53 pm 23:53 Clear 69 20.6 39 3.9 33 33 E 14 22 29.68 1005 10 16 0.00 0.00

Powered by AerisWeather